sat.trackr.live / text

‹ back to catalog

STARLINK-3628

NORAD 51783 · 2022-017R

PAYLOAD ACTIVE UNKNOWN

§ Identity

Operator
Country
US
Launch date
2022-02-25
Launch site
AFWTR
Launch vehicle
Mass (kg)
RCS (m²)

Purposes: comms

External: N2YO · Heavens-Above · Gunter

§ Orbital elements

Epoch: 2026-09-19T22:44:58.960032Z

Period
94.01 min
Inclination
53.1602°
Eccentricity
0.0001340
Mean motion
15.31700269 rev/d
Perigee alt
469.8 km
Apogee alt
471.7 km
Semi-major
6,848.9 km
B*
1.2700e-7
RAAN
171.8928°
Arg perigee
80.7253°
Mean anomaly
279.3900°
Rev number
25,195

§ Raw data

STARLINK-36281 51783U 22017R   26262.94790463 -.00000361  00000+0  12700-6 0  99922 51783  53.1602 171.8928 0001340  80.7253 279.3900 15.31700269251958

JSON: /api/v1/satellites/51783 · /tle

For live sub-satellite position, see the globe view (requires WebGL).

§ Visibility from observer

Set your observer location to see the next 7 days of passes ≥ 10°. The values pass through the URL so the page stays shareable.

No JS? Fill the form by hand. The geolocation button needs JavaScript.